Date,TemperatureHighF,TemperatureAvgF,TemperatureLowF,DewpointHighF,DewpointAvgF,DewpointLowF,HumidityHigh,HumidityAvg,HumidityLow,PressureMaxIn,PressureMinIn,WindSpeedMaxMPH,WindSpeedAvgMPH,GustSpeedMaxMPH,PrecipitationSumIn
2013-1-1,40,24,9,18,13,5,91,66,38,29.92,29.79,10,4,17,0.00
2013-1-2,42,23,9,12,9,4,85,58,27,29.95,29.84,6,2,14,0.00
2013-1-3,42,23,14,14,7,2,75,53,30,30.03,29.91,8,3,14,0.00
2013-1-4,41,22,5,5,2,-2,77,47,23,30.00,29.87,6,2,11,0.00
2013-1-5,45,27,9,8,2,-2,66,39,18,30.05,29.93,8,3,17,0.00
2013-1-6,44,26,12,9,4,-1,64,41,23,30.06,29.83,7,2,11,0.00
2013-1-7,54,35,24,19,11,5,67,41,24,29.85,29.70,7,2,12,0.00
2013-1-8,50,34,16,18,14,9,80,48,23,29.95,29.70,12,5,21,0.00
2013-1-9,62,38,22,18,13,6,67,41,20,30.11,29.87,6,2,12,0.00
2013-1-10,47,32,22,16,11,7,60,43,27,29.87,29.52,6,2,13,0.00
2013-1-11,39,29,11,23,2,-16,64,35,16,29.66,29.41,14,6,25,0.00
2013-1-12,38,18,6,-3,-9,-20,50,33,16,29.72,29.59,10,3,15,0.00
2013-1-13,32,15,-3,2,-6,-12,70,42,25,29.78,29.67,7,2,14,0.00
2013-1-14,31,17,9,22,8,-8,89,67,43,29.78,29.66,8,3,16,0.00
2013-1-15,26,14,5,5,-1,-6,65,50,36,30.01,29.76,13,7,25,0.00
2013-1-16,44,25,6,15,6,-4,66,46,31,30.10,29.99,8,3,16,0.00
2013-1-17,53,31,16,18,12,7,69,48,25,30.18,30.07,7,2,11,0.00
2013-1-18,58,36,17,20,16,9,73,48,25,30.09,29.95,8,2,12,0.00
2013-1-19,59,38,21,20,16,12,72,45,22,30.07,29.97,7,3,12,0.00
2013-1-20,59,39,17,20,11,2,71,38,14,30.03,29.90,8,3,15,0.00
2013-1-21,58,39,19,16,12,7,62,37,20,30.02,29.92,10,4,19,0.00
2013-1-22,63,42,22,17,11,0,64,33,12,30.04,29.95,11,4,21,0.00
2013-1-23,60,40,18,13,8,2,55,31,17,30.10,30.00,7,2,10,0.00
2013-1-24,65,45,25,35,17,2,74,38,19,30.04,29.91,9,2,15,0.00
2013-1-25,62,47,32,41,36,25,81,66,48,30.03,29.91,4,1,10,0.00
2013-1-26,51,45,41,50,41,36,99,87,66,29.91,29.68,12,2,23,0.21
2013-1-27,64,47,37,43,40,36,99,78,45,29.76,29.68,11,3,18,0.00
2013-1-28,55,42,32,42,34,19,99,76,38,29.70,29.52,14,4,24,0.00
2013-1-29,36,29,24,22,14,4,80,56,30,29.70,29.48,20,9,36,0.12
2013-1-30,43,29,14,17,13,7,85,55,31,29.92,29.70,12,5,27,0.00
2013-1-31,54,36,18,25,21,13,89,58,28,30.01,29.90,9,3,17,0.00
2013-2-1,61,40,20,24,19,14,83,49,24,30.01,29.90,8,3,15,0.00
2013-2-2,65,44,30,27,21,14,74,45,19,30.09,30.01,6,2,13,0.00
2013-2-3,53,41,30,30,21,16,63,48,29,30.02,29.76,8,2,14,0.00
2013-2-4,60,43,33,30,25,18,81,53,28,29.86,29.76,10,5,18,0.00
2013-2-5,67,44,29,25,18,11,68,41,18,29.86,29.75,8,2,15,0.00
2013-2-6,62,44,24,29,21,12,73,45,28,29.77,29.65,8,2,14,0.00
2013-2-7,63,44,32,27,19,6,72,42,17,29.90,29.76,8,2,15,0.00
2013-2-8,57,43,31,24,20,14,58,42,29,29.86,29.55,15,4,26,0.00
2013-2-9,48,35,25,24,13,2,69,44,22,29.60,29.43,17,6,29,0.39
2013-2-10,45,31,18,21,13,8,85,51,26,29.71,29.59,11,3,17,0.00
2013-2-11,47,31,16,27,17,2,94,64,19,29.75,29.65,10,3,21,0.00
2013-2-12,41,33,19,20,14,11,83,50,34,29.88,29.69,12,8,21,0.00
2013-2-13,40,33,18,16,11,7,63,42,33,29.88,29.77,51,7,51,1.51
2013-2-14,53,37,19,20,16,10,76,47,27,29.94,29.79,17,6,26,0.38
2013-2-15,54,38,21,22,11,0,81,41,15,30.06,29.94,15,4,27,0.00
2013-2-16,64,41,22,13,5,-8,52,27,11,30.11,29.87,8,2,16,0.00
2013-2-17,62,42,18,8,1,-5,42,23,11,29.88,29.52,8,3,17,0.00
2013-2-18,53,40,25,16,-4,-24,57,21,10,29.82,29.60,13,6,24,0.00
2013-2-19,60,42,22,36,3,-21,81,28,11,29.83,29.53,14,5,28,0.00
2013-2-20,53,40,31,37,30,16,91,73,29,29.55,29.35,14,5,25,0.00
2013-2-21,50,36,28,28,22,14,92,60,30,29.65,29.36,11,4,19,0.00
2013-2-22,42,32,19,24,17,7,84,57,29,29.77,29.64,11,3,21,0.00
2013-2-23,53,35,13,18,10,3,73,40,20,29.79,29.50,9,3,17,0.00
2013-2-24,42,32,25,23,12,0,73,48,25,29.64,29.44,17,8,27,0.01
2013-2-25,51,35,21,14,7,-4,66,38,16,29.79,29.64,12,6,23,0.00
2013-2-26,48,32,15,14,1,-18,60,31,11,29.79,29.60,19,6,30,0.02
2013-2-27,50,33,18,9,1,-10,51,29,14,29.97,29.80,8,4,18,0.00
2013-2-28,54,37,20,8,0,-7,44,25,11,30.02,29.93,17,5,22,0.00
2013-3-1,61,44,25,19,12,0,46,31,21,30.07,29.97,13,6,24,0.00
2013-3-2,69,49,31,25,20,12,60,36,19,30.12,29.93,10,4,18,0.00
2013-3-3,68,50,26,24,14,1,58,30,11,29.94,29.67,14,4,24,0.00
2013-3-4,65,51,39,24,19,14,45,31,22,29.88,29.61,15,5,27,0.00
2013-3-5,62,46,25,22,14,-3,66,35,12,30.03,29.88,6,2,17,0.00
2013-3-6,67,50,37,27,18,7,41,31,24,29.92,29.73,10,2,16,0.00
2013-3-7,73,54,29,21,15,6,43,25,15,29.83,29.69,9,2,20,0.00
2013-3-8,63,45,33,44,25,6,99,56,20,29.76,29.56,14,3,23,0.08
2013-3-9,46,36,28,36,26,19,99,70,39,29.73,29.56,12,4,24,0.00
2013-3-10,55,37,22,33,23,13,99,66,28,29.88,29.72,11,3,23,0.00
2013-3-11,64,45,23,21,17,10,75,39,16,29.91,29.77,13,4,20,0.00
2013-3-12,70,51,32,27,22,16,59,36,20,29.99,29.82,12,4,21,0.00
2013-3-13,74,52,29,30,22,13,69,37,19,30.09,29.96,8,2,18,0.00
2013-3-14,82,58,35,29,20,7,55,28,14,30.08,29.95,5,2,13,0.00
2013-3-15,81,61,40,24,16,6,33,21,14,29.98,29.75,8,2,15,0.00
2013-3-16,72,58,38,35,21,8,60,28,17,29.76,29.60,14,5,26,0.00
2013-3-17,70,52,34,35,21,-7,81,41,10,29.70,29.52,17,4,31,0.00
2013-3-18,69,52,34,11,5,-6,31,19,12,29.79,29.66,14,4,24,0.00
2013-3-19,67,50,38,15,6,-3,36,21,15,29.94,29.75,11,2,20,0.00
2013-3-20,65,48,28,27,17,10,50,32,20,29.98,29.67,8,3,17,0.00
2013-3-21,72,57,44,34,20,2,53,30,10,29.68,29.48,18,6,30,0.00
2013-3-22,67,51,30,27,10,0,43,23,13,29.62,29.46,14,5,38,0.01
2013-3-23,48,38,19,25,-5,-30,52,21,10,29.82,29.52,23,9,36,0.06
2013-3-24,55,37,18,-5,-12,-26,24,15,10,29.85,29.66,14,4,25,0.00
2013-3-25,58,39,18,9,4,-8,56,27,15,29.92,29.80,13,4,23,0.00
2013-3-26,66,47,26,13,7,1,37,23,15,29.93,29.74,11,4,21,0.00
2013-3-27,74,56,36,17,9,2,33,20,12,29.85,29.75,13,3,22,0.00
2013-3-28,76,60,42,24,14,3,28,19,13,29.90,29.80,14,2,36,0.00
2013-3-29,78,60,38,24,18,9,36,24,15,29.94,29.83,9,2,17,0.00
2013-3-30,78,59,35,26,20,11,41,26,16,29.94,29.78,11,3,21,0.00
2013-3-31,77,60,42,34,27,22,51,32,21,29.90,29.76,9,2,15,0.00
2013-4-1,75,61,40,27,17,2,46,24,11,29.84,29.66,15,3,21,0.00
2013-4-2,69,54,41,24,14,3,38,25,11,29.78,29.62,15,3,27,0.00
2013-4-3,70,51,32,32,24,17,76,42,20,29.90,29.77,10,3,21,0.00
2013-4-4,77,57,32,30,20,7,62,32,15,29.98,29.84,7,2,13,0.00
2013-4-5,78,61,43,23,14,6,30,19,12,29.88,29.63,15,4,22,0.00
2013-4-6,79,64,44,28,23,16,41,25,17,29.80,29.64,9,3,29,0.00
2013-4-7,77,63,46,26,20,13,41,23,15,29.72,29.58,14,4,21,0.00
2013-4-8,77,62,48,30,22,13,46,26,15,29.60,29.25,19,8,37,0.09
2013-4-9,53,44,36,37,32,26,88,65,39,29.62,29.27,14,6,24,0.01
2013-4-10,50,40,32,36,24,15,98,59,38,29.72,29.62,11,4,21,0.00
2013-4-11,68,48,29,32,23,13,57,41,26,29.73,29.61,15,5,27,0.00
2013-4-12,75,57,43,36,30,22,65,41,22,29.73,29.62,10,2,16,0.00
2013-4-13,76,60,38,26,21,13,50,27,15,29.71,29.50,12,3,26,0.00
2013-4-14,78,63,46,28,24,18,37,26,17,29.55,29.45,17,6,31,0.00
2013-4-15,81,64,45,27,21,15,37,24,14,29.59,29.44,16,6,103,0.00
2013-4-16,82,65,50,27,16,-2,33,20,11,29.62,29.48,21,8,34,0.01
2013-4-17,63,51,35,30,19,0,44,31,14,29.73,29.47,21,6,34,0.00
2013-4-18,51,40,26,14,3,-6,45,27,13,29.87,29.73,20,8,32,0.00
2013-11-16,68,68,68,66,66,66,93,93,93,29.93,29.92,5,5,9,0.17